[[{"header":{"parameterUnit":"m.s-1","parameterCategory":1,"la1":30.2991,"la2":30.254,"lo1":-89.0895,"lo2":-89.0444,"dy":0.0017,"dx":0.0017,"nx":28,"ny":28,"refTime":"2025-02-28T09:00:00:Z","depth":0,"parameterNumber":2,"parameterNumberName":"U-component_of_WINDS"},"data":[0,0,0,0,0,0,0,0,0,0,0,0,0,0,0,0,0,0,0,0,0,0,0,0,0,0,0,0,0,0,0,0,0,0,0,0,0,0,0,0,0,0,0,0,0,0,0,0,0,0,0,0,0,0,0,0,0,0,1.4338,1.434,0,1.4503,1.4505,1.4507,1.4527,1.4526,1.4524,1.4523,1.4696,1.4702,1.4708,0,0,0,0,0,0,0,0,0,0,0,0,0,1.4048,1.4053,1.4338,1.434,1.4342,1.4503,1.4505,1.4507,1.4528,1.4526,1.4524,1.4522,1.4694,1.4701,1.4709,0,0,0,0,0,0,0,0,0,0,0,0,0,1.419,1.4055,1.4338,1.4372,1.4376,1.4502,1.4505,1.4508,1.4528,1.4526,1.4523,1.4521,1.4692,1.4701,1.471,1.4815,0,0,1.4738,1.4742,0,0,0,0,0,0,0,0,1.4182,1.42,1.4365,1.4369,1.4375,1.4492,1.4466,1.4611,1.4529,1.4471,1.4522,1.452,1.4631,1.4645,1.4681,1.4823,1.4831,1.4739,1.4744,1.4748,1.4751,0,0,0,0,0,0,0,1.4172,1.4193,1.4404,1.4367,1.4373,1.4381,1.4398,1.4494,1.4562,1.4475,1.4477,1.4496,1.4633,1.4672,1.4685,1.4833,1.4738,1.4746,1.4752,1.4756,1.5076,1.5079,0,0,0,0,0,0,1.4155,1.4185,1.4398,1.4409,1.427,1.4388,1.4408,1.4457,1.4561,1.4575,1.4498,1.4497,1.4658,1.4674,1.4691,1.4826,1.4748,1.4757,1.4762,1.5073,1.5077,1.508,0,0,0,0,0,0,1.4149,1.4174,1.4392,1.4297,1.4326,1.4396,1.4451,1.4462,1.4501,1.4578,1.4591,1.4525,1.4656,1.4678,1.4785,1.4832,1.4761,1.4769,1.5069,1.5074,1.5078,1.5093,0,0,0,0,0,0,1.414,1.4171,1.421,1.4298,1.4331,1.4481,1.4454,1.4467,1.4516,1.4515,1.4607,1.462,1.4656,1.4771,1.4794,1.4843,1.4776,1.5066,1.5071,1.5077,1.5088,1.5097,1.5105,0,0,0,0,0,1.413,1.4207,1.4212,1.4238,1.438,1.4483,1.4502,1.454,1.4519,1.4561,1.4612,1.4617,1.4822,1.4782,1.4808,1.4861,1.5063,1.507,1.5076,1.5085,1.5095,1.5104,0,0,0,0,0,0,1.4124,1.4219,1.4225,1.4333,1.44,1.4486,1.4539,1.455,1.4625,1.4621,1.4667,1.4688,1.4794,1.4837,1.4791,1.4971,1.4941,1.4953,1.4939,1.4949,1.4957,1.4946,1.4784,0,0,0,0,0,1.4135,1.4208,1.4289,1.4377,1.4409,1.4469,1.4515,1.4539,1.461,1.4639,1.4697,1.4767,1.4849,1.4901,1.4979,1.5094,1.5117,1.5143,1.5151,1.5158,1.5169,1.5238,1.5252,1.5102,1.5102,1.5102,0,0,1.4159,1.4221,1.4264,1.4377,1.4431,1.451,1.4492,1.4574,1.4634,1.4652,1.4757,1.4802,1.4884,1.4997,1.5049,1.5037,1.5215,1.5166,1.5171,1.5179,1.5247,1.5261,1.5273,1.5106,1.5106,1.5105,0,0,1.4244,1.4296,1.4377,1.4432,1.4515,1.4554,1.4573,1.4659,1.469,1.4795,1.4812,1.4884,1.5021,1.508,1.5128,1.5239,1.5249,1.5263,1.5307,1.5374,1.5386,1.5397,1.5441,1.5455,1.5273,1.5274,1.5274,0,1.4265,1.4381,1.4418,1.4501,1.4552,1.4571,1.4656,1.4708,1.4812,1.4848,1.4832,1.5007,1.5064,1.5193,1.522,1.5257,1.5284,1.5254,1.5381,1.5392,1.5403,1.5445,1.5461,1.5275,1.5275,1.5275,1.5275,0,1.4404,1.4485,1.4541,1.4641,1.4698,1.4782,1.4834,1.4888,1.4908,1.495,1.506,1.5128,1.5223,1.5255,1.5274,1.5388,1.5379,1.5371,1.5343,1.5418,1.5459,1.5475,1.5277,1.5277,1.5276,1.5276,0,0,1.4491,1.4612,1.4632,1.468,1.4773,1.4838,1.4924,1.5015,1.5063,1.5135,1.5211,1.5328,1.5322,1.5377,1.5404,1.5462,1.5551,1.5448,1.5451,1.5469,1.5687,1.5695,1.5713,1.5557,1.556,1.5563,1.5682,0,1.459,1.4742,1.4779,1.4911,1.4989,1.5009,1.5084,1.5152,1.5194,1.5268,1.5315,1.5399,1.5382,1.5417,1.5475,1.5528,1.5597,1.5519,1.5633,1.5636,1.5615,1.5734,1.5742,1.5851,1.5697,1.57,1.5702,0,1.4726,1.4801,1.494,1.5027,1.5061,1.5128,1.5218,1.5287,1.5365,1.5392,1.5454,1.5476,1.557,1.5535,1.5667,1.5614,1.5663,1.5696,1.5701,1.5717,1.5676,1.5756,1.5886,1.5904,1.5727,1.5725,1.5723,0,1.4781,1.4916,1.5019,1.5058,1.5161,1.5208,1.5254,1.5329,1.5383,1.5462,1.5499,1.5587,1.5637,1.5706,1.5753,1.5722,1.5884,1.5851,1.5912,1.5911,1.5948,1.5946,1.6091,1.5972,1.5972,1.5972,1.5971,0,1.489,1.4976,1.5045,1.5108,1.5206,1.5249,1.5346,1.5392,1.5459,1.5535,1.5556,1.5627,1.5682,1.5761,1.5798,1.5905,1.5926,1.5954,1.5963,1.5954,1.5951,1.5989,1.5984,1.5976,1.5975,1.5974,1.5973,0,1.4969,1.5018,1.5132,1.522,1.5245,1.5313,1.5391,1.5455,1.5497,1.5592,1.5617,1.5685,1.578,1.5832,1.5951,1.5976,1.6097,1.61,1.6071,1.6076,1.6136,1.6131,1.6314,1.6343,1.62,1.6202,1.6203,0,1.5037,1.5104,1.52,1.5251,1.5297,1.5379,1.5435,1.5481,1.5538,1.5634,1.5688,1.5783,1.5863,1.6013,1.6075,1.6167,1.6176,1.6234,1.619,1.618,1.6183,1.618,1.6189,1.6242,1.6244,1.6245,1.6245,0,1.5155,1.5177,1.5255,1.5344,1.541,1.5482,1.5553,1.5595,1.5653,1.5717,1.5814,1.5875,1.5997,1.6093,1.6191,1.624,1.6255,1.6258,1.6278,1.6272,1.6254,1.6269,1.6096,1.6255,1.6254,1.6253,1.6253,1.6252,1.5234,1.5296,1.5374,1.5462,1.5521,1.5588,1.5654,1.5705,1.5786,1.5888,1.591,1.6014,1.6094,1.6226,1.6279,1.6362,1.6352,1.6379,1.6387,1.6395,1.6399,1.6237,1.638,1.6379,1.6379,1.6379,1.6379,0,1.5357,1.5409,1.5489,1.5589,1.5659,1.5664,1.5744,1.5804,1.5894,1.5967,1.6045,1.6158,1.6252,1.6322,1.6419,1.6473,1.6482,1.6497,1.6496,1.6508,1.6401,1.6376,1.6488,1.6488,1.6488,1.6488,1.6488,1.6488,1.543,1.5536,1.5568,1.5705,1.5756,1.5857,1.5903,1.5967,1.6026,1.6151,1.6229,1.6273,1.6346,1.6449,1.6538,1.6556,1.6593,1.6608,1.6628,1.6527,1.6515,1.6504,1.6481,1.6614,1.6614,1.6729,1.673,1.6731]},{"header":{"parameterUnit":"m.s-1","parameterCategory":1,"la1":30.2991,"la2":30.254,"lo1":-89.0895,"lo2":-89.0444,"dy":0.0017,"dx":0.0017,"nx":28,"ny":28,"refTime":"2025-02-28T09:00:00:Z","depth":0,"parameterNumber":3,"parameterNumberName":"V-component_of_WINDS"},"data":[0,0,0,0,0,0,0,0,0,0,0,0,0,0,0,0,0,0,0,0,0,0,0,0,0,0,0,0,0,0,0,0,0,0,0,0,0,0,0,0,0,0,0,0,0,0,0,0,0,0,0,0,0,0,0,0,0,0,-3.8402,-3.8399,0,-3.8108,-3.8105,-3.8101,-3.8027,-3.8029,-3.8031,-3.8032,-3.7719,-3.7709,-3.77,0,0,0,0,0,0,0,0,0,0,0,0,0,-3.8887,-3.8879,-3.8402,-3.8399,-3.8395,-3.8109,-3.8105,-3.81,-3.8026,-3.8029,-3.8031,-3.8033,-3.7723,-3.7711,-3.7699,0,0,0,0,0,0,0,0,0,0,0,0,0,-3.8643,-3.8876,-3.8403,-3.8324,-3.8314,-3.8109,-3.8104,-3.8099,-3.8026,-3.8029,-3.8032,-3.8034,-3.7727,-3.7712,-3.7697,-3.7547,0,0,-3.7651,-3.7644,0,0,0,0,0,0,0,0,-3.8657,-3.8625,-3.8339,-3.8329,-3.8317,-3.8107,-3.8161,-3.7914,-3.8025,-3.8135,-3.8032,-3.8036,-3.7845,-3.7821,-3.7759,-3.7532,-3.7519,-3.7649,-3.764,-3.7634,-3.7629,0,0,0,0,0,0,0,-3.8674,-3.8637,-3.8285,-3.8335,-3.8322,-3.8299,-3.8267,-3.8113,-3.7977,-3.8125,-3.8119,-3.8086,-3.784,-3.7774,-3.7751,-3.7514,-3.765,-3.7636,-3.7627,-3.7621,-3.7145,-3.7141,0,0,0,0,0,0,-3.8706,-3.8652,-3.8295,-3.8277,-3.8498,-3.8288,-3.8253,-3.8172,-3.7979,-3.7953,-3.8084,-3.8084,-3.7798,-3.7769,-3.774,-3.7548,-3.7634,-3.762,-3.7611,-3.7148,-3.7144,-3.714,0,0,0,0,0,0,-3.8717,-3.8675,-3.8307,-3.8462,-3.8414,-3.8277,-3.8186,-3.8164,-3.8098,-3.7948,-3.7922,-3.8042,-3.7799,-3.7761,-3.7595,-3.7536,-3.7613,-3.7599,-3.7153,-3.7147,-3.7142,-3.7166,0,0,0,0,0,0,-3.8731,-3.8679,-3.8624,-3.8462,-3.8406,-3.8171,-3.8183,-3.8156,-3.8074,-3.807,-3.7902,-3.7876,-3.7798,-3.7618,-3.758,-3.7517,-3.7587,-3.7157,-3.715,-3.7144,-3.7169,-3.7162,-3.7155,0,0,0,0,0,-3.8749,-3.864,-3.8622,-3.8579,-3.8334,-3.8168,-3.8135,-3.8051,-3.807,-3.801,-3.7913,-3.7882,-3.755,-3.7602,-3.7558,-3.7489,-3.716,-3.7152,-3.7144,-3.7173,-3.7163,-3.7155,0,0,0,0,0,0,-3.8795,-3.8618,-3.8595,-3.8432,-3.8316,-3.8156,-3.8079,-3.8045,-3.7918,-3.792,-3.7817,-3.778,-3.762,-3.7538,-3.76,-3.7332,-3.7354,-3.7337,-3.7391,-3.7381,-3.7374,-3.7395,-3.7575,0,0,0,0,0,-3.8787,-3.8671,-3.8521,-3.8391,-3.8334,-3.8217,-3.8141,-3.8087,-3.7961,-3.791,-3.7801,-3.7677,-3.7544,-3.7458,-3.7328,-3.7159,-3.7118,-3.7089,-3.7082,-3.7077,-3.7062,-3.6962,-3.6946,-3.7114,-3.7114,-3.7114,0,0,-3.8768,-3.8657,-3.8589,-3.8397,-3.8301,-3.8178,-3.8176,-3.8047,-3.7953,-3.7889,-3.7726,-3.7642,-3.7496,-3.7327,-3.7247,-3.7254,-3.7008,-3.7067,-3.7064,-3.7051,-3.6952,-3.6937,-3.6923,-3.7108,-3.7109,-3.711,0,0,-3.8669,-3.8576,-3.8456,-3.836,-3.8216,-3.8138,-3.811,-3.7954,-3.7897,-3.7733,-3.7681,-3.7567,-3.7342,-3.7239,-3.7157,-3.7019,-3.6983,-3.698,-3.6941,-3.6844,-3.6831,-3.6819,-3.6765,-3.6748,-3.6966,-3.6966,-3.6966,0,-3.8662,-3.848,-3.8398,-3.8271,-3.8186,-3.8127,-3.8002,-3.7912,-3.7731,-3.7671,-3.7683,-3.7398,-3.7296,-3.71,-3.7067,-3.7004,-3.6964,-3.6996,-3.6841,-3.6827,-3.6814,-3.6762,-3.6743,-3.6966,-3.6966,-3.6966,-3.6966,0,-3.8476,-3.835,-3.8269,-3.81,-3.8006,-3.7881,-3.7776,-3.7691,-3.7644,-3.7565,-3.7396,-3.7271,-3.7114,-3.7064,-3.7016,-3.686,-3.6868,-3.6862,-3.6881,-3.68,-3.6749,-3.6729,-3.6966,-3.6966,-3.6966,-3.6966,0,0,-3.8396,-3.8184,-3.8155,-3.8076,-3.7912,-3.7811,-3.7681,-3.7531,-3.7457,-3.7334,-3.722,-3.7031,-3.7023,-3.693,-3.6871,-3.6787,-3.6681,-3.679,-3.6784,-3.677,-3.6496,-3.6499,-3.6477,-3.6658,-3.6654,-3.6651,-3.6507,0,-3.8275,-3.8045,-3.7967,-3.7775,-3.7654,-3.7596,-3.7482,-3.7367,-3.7289,-3.7172,-3.7084,-3.695,-3.6953,-3.6896,-3.6811,-3.6712,-3.6624,-3.6722,-3.6545,-3.654,-3.658,-3.6451,-3.6454,-3.6324,-3.6487,-3.6483,-3.6481,0,-3.8101,-3.7979,-3.7776,-3.7625,-3.7571,-3.7471,-3.7325,-3.7216,-3.7083,-3.7031,-3.6929,-3.6875,-3.6732,-3.6764,-3.6563,-3.6632,-3.6555,-3.6496,-3.6488,-3.6465,-3.6503,-3.642,-3.6281,-3.626,-3.6449,-3.6452,-3.6454,0,-3.8059,-3.7843,-3.7693,-3.7627,-3.7449,-3.7379,-3.7301,-3.7171,-3.7084,-3.6956,-3.6898,-3.6754,-3.6673,-3.6561,-3.6468,-3.65,-3.6274,-3.6299,-3.6222,-3.6225,-3.6174,-3.6178,-3.6016,-3.6132,-3.6133,-3.6133,-3.6133,0,-3.7928,-3.7805,-3.7671,-3.7578,-3.7437,-3.7347,-3.7208,-3.7126,-3.7011,-3.6897,-3.6838,-3.6732,-3.6618,-3.6496,-3.6422,-3.6265,-3.623,-3.618,-3.6161,-3.6183,-3.6189,-3.6128,-3.6133,-3.6128,-3.6129,-3.613,-3.6131,0,-3.7855,-3.7761,-3.7593,-3.7439,-3.7397,-3.7299,-3.7164,-3.7069,-3.699,-3.6847,-3.6808,-3.6681,-3.6533,-3.6431,-3.6242,-3.6192,-3.602,-3.6005,-3.6066,-3.6056,-3.5984,-3.599,-3.5774,-3.5739,-3.5883,-3.5882,-3.5881,0,-3.7777,-3.768,-3.7517,-3.7438,-3.7361,-3.7235,-3.7147,-3.7055,-3.6965,-3.6805,-3.6728,-3.6579,-3.6453,-3.622,-3.6108,-3.5961,-3.5939,-3.5873,-3.5916,-3.594,-3.5932,-3.5937,-3.5925,-3.5865,-3.5864,-3.5863,-3.5862,0,-3.7645,-3.7603,-3.7481,-3.7341,-3.7239,-3.7124,-3.7008,-3.6946,-3.6832,-3.6733,-3.6584,-3.6487,-3.6295,-3.6144,-3.5988,-3.5902,-3.586,-3.5851,-3.5824,-3.5843,-3.5881,-3.5855,-3.6044,-3.5855,-3.5855,-3.5856,-3.5856,-3.5857,-3.7563,-3.7474,-3.7344,-3.7209,-3.7113,-3.7005,-3.6908,-3.6817,-3.6692,-3.653,-3.6483,-3.6327,-3.6192,-3.5978,-3.589,-3.5764,-3.5768,-3.5731,-3.572,-3.5711,-3.571,-3.5906,-3.5735,-3.5735,-3.5735,-3.5735,-3.5735,0,-3.7424,-3.7338,-3.7215,-3.7056,-3.6948,-3.6925,-3.6795,-3.6705,-3.657,-3.645,-3.6329,-3.6155,-3.6009,-3.5887,-3.5734,-3.5656,-3.5633,-3.5619,-3.5621,-3.5601,-3.5717,-3.5753,-3.564,-3.564,-3.564,-3.564,-3.564,-3.564,-3.7339,-3.7186,-3.7129,-3.6925,-3.6839,-3.6688,-3.6615,-3.6514,-3.6418,-3.6229,-3.6108,-3.6031,-3.5908,-3.5747,-3.561,-3.5577,-3.5521,-3.5511,-3.5473,-3.5582,-3.5593,-3.5603,-3.5637,-3.5501,-3.55,-3.5366,-3.5365,-3.5364]}]]